EN

Hourly Weather Ambo

Today, 22 January, Friday

Time Temperature Precipitation Wind Pressure Humidity
00:00 +16°C° 0.2 mm 1 mps 569 mmHg 95%
01:00 +15°C° 0.2 mm 1 mps 569 mmHg 96%
02:00 +15°C° 0.4 mm 1 mps 569 mmHg 96%
03:00 +15°C° 0.4 mm 1 mps 569 mmHg 96%
04:00 +15°C° 0.4 mm 1 mps 569 mmHg 96%
05:00 +15°C° 0.3 mm 1 mps 569 mmHg 96%
06:00 +15°C° 0.3 mm 1 mps 569 mmHg 95%
07:00 +15°C° 0.3 mm 1 mps 570 mmHg 94%
08:00 +15°C° 0.6 mm 1 mps 570 mmHg 93%
09:00 +15°C° 0.6 mm 2 mps 570 mmHg 92%
10:00 +16°C° 0.6 mm 2 mps 570 mmHg 91%
11:00 +17°C° 0.2 mm 2 mps 570 mmHg 87%
12:00 +17°C° 0.2 mm 2 mps 570 mmHg 83%
13:00 +18°C° 0.2 mm 2 mps 570 mmHg 78%
14:00 +19°C° 0.1 mm 2 mps 570 mmHg 76%
15:00 +20°C° 0.1 mm 3 mps 570 mmHg 74%
16:00 +20°C° 0.1 mm 3 mps 569 mmHg 72%
17:00 +19°C° 0.2 mm 3 mps 569 mmHg 78%
18:00 +18°C° 0.2 mm 3 mps 569 mmHg 84%
19:00 +16°C° 0.2 mm 2 mps 569 mmHg 90%
20:00 +16°C° 0.2 mm 2 mps 569 mmHg 92%
21:00 +15°C° 0.2 mm 2 mps 569 mmHg 93%
22:00 +15°C° 0.2 mm 1 mps 570 mmHg 95%
23:00 +15°C° 0.2 mm 1 mps 569 mmHg 95%

Tomorrow, 23 January, Saturday

Time Temperature Precipitation Wind Pressure Humidity
00:00 +15°C° 0.2 mm 1 mps 569 mmHg 95%
01:00 +15°C° 0.2 mm 1 mps 569 mmHg 96%
02:00 +15°C° 0.2 mm 1 mps 569 mmHg 95%
03:00 +14°C° 0.2 mm 1 mps 569 mmHg 95%
04:00 +14°C° 0.2 mm 1 mps 568 mmHg 94%
05:00 +14°C° 0 mm 1 mps 569 mmHg 92%
06:00 +14°C° 0 mm 0 mps 569 mmHg 91%
07:00 +14°C° 0 mm 0 mps 570 mmHg 89%
08:00 +16°C° 0.1 mm 1 mps 570 mmHg 82%
09:00 +18°C° 0.1 mm 2 mps 571 mmHg 75%
10:00 +20°C° 0.1 mm 2 mps 572 mmHg 68%
11:00 +20°C° 0.5 mm 3 mps 572 mmHg 69%
12:00 +20°C° 0.5 mm 3 mps 572 mmHg 70%
13:00 +21°C° 0.5 mm 4 mps 571 mmHg 71%
14:00 +20°C° 0.8 mm 4 mps 571 mmHg 74%
15:00 +19°C° 0.8 mm 4 mps 570 mmHg 78%
16:00 +19°C° 0.8 mm 3 mps 569 mmHg 81%
17:00 +18°C° 0.5 mm 3 mps 569 mmHg 85%
18:00 +17°C° 0.5 mm 2 mps 569 mmHg 89%
19:00 +16°C° 0.5 mm 2 mps 569 mmHg 94%
20:00 +16°C° 0.2 mm 2 mps 569 mmHg 94%
21:00 +15°C° 0.2 mm 1 mps 570 mmHg 95%
22:00 +15°C° 0.2 mm 1 mps 570 mmHg 96%
23:00 +15°C° 0.2 mm 1 mps 570 mmHg 95%

Day after tomorrow, 24 January, Sunday

Time Temperature Precipitation Wind Pressure Humidity
00:00 +15°C° 0.2 mm 1 mps 569 mmHg 95%
01:00 +14°C° 0.2 mm 0 mps 569 mmHg 95%
02:00 +14°C° 0.4 mm 0 mps 569 mmHg 95%
03:00 +13°C° 0.4 mm 0 mps 568 mmHg 95%
04:00 +13°C° 0.4 mm 0 mps 568 mmHg 95%
05:00 +13°C° 0.7 mm 0 mps 568 mmHg 95%
06:00 +14°C° 0.7 mm 0 mps 569 mmHg 95%
07:00 +14°C° 0.7 mm 0 mps 569 mmHg 94%
08:00 +14°C° 0.4 mm 0 mps 569 mmHg 91%
09:00 +16°C° 0.4 mm 1 mps 570 mmHg 88%
10:00 +16°C° 0.4 mm 1 mps 570 mmHg 85%
11:00 +18°C° 0.3 mm 1 mps 570 mmHg 82%
12:00 +18°C° 0.3 mm 2 mps 570 mmHg 79%
13:00 +19°C° 0.3 mm 3 mps 570 mmHg 77%
14:00 +19°C° 0.2 mm 3 mps 570 mmHg 75%
15:00 +19°C° 0.2 mm 2 mps 569 mmHg 73%
16:00 +19°C° 0.2 mm 2 mps 569 mmHg 71%
17:00 +18°C° 0.1 mm 2 mps 568 mmHg 78%
18:00 +17°C° 0.1 mm 2 mps 568 mmHg 85%
19:00 +16°C° 0.1 mm 2 mps 568 mmHg 92%
20:00 +16°C° 0.1 mm 1 mps 568 mmHg 93%
21:00 +15°C° 0.1 mm 1 mps 568 mmHg 94%
22:00 +15°C° 0.1 mm 1 mps 569 mmHg 95%
23:00 +15°C° 0.1 mm 1 mps 569 mmHg 95%

25 January, Monday

Time Temperature Precipitation Wind Pressure Humidity
00:00 +15°C° 0.1 mm 1 mps 568 mmHg 95%
01:00 +14°C° 0.1 mm 1 mps 568 mmHg 95%
02:00 +14°C° 0.1 mm 1 mps 568 mmHg 94%
03:00 +13°C° 0.1 mm 0 mps 568 mmHg 93%
04:00 +13°C° 0.1 mm 0 mps 568 mmHg 92%
05:00 +14°C° 0 mm 0 mps 568 mmHg 91%
06:00 +14°C° 0 mm 0 mps 569 mmHg 89%
07:00 +14°C° 0 mm 0 mps 569 mmHg 88%
08:00 +16°C° 0.1 mm 1 mps 570 mmHg 83%
09:00 +19°C° 0.1 mm 1 mps 570 mmHg 79%
10:00 +19°C° 0.1 mm 2 mps 571 mmHg 74%
11:00 +20°C° 0.3 mm 2 mps 571 mmHg 72%
12:00 +20°C° 0.3 mm 3 mps 571 mmHg 70%
13:00 +21°C° 0.3 mm 3 mps 570 mmHg 68%
14:00 +21°C° 0.3 mm 3 mps 570 mmHg 69%
15:00 +21°C° 0.3 mm 3 mps 569 mmHg 70%
16:00 +21°C° 0.3 mm 3 mps 569 mmHg 71%
17:00 +20°C° 0.2 mm 3 mps 568 mmHg 78%
18:00 +18°C° 0.2 mm 2 mps 568 mmHg 84%
19:00 +17°C° 0.2 mm 2 mps 568 mmHg 90%
20:00 +18°C° 0.1 mm 1 mps 568 mmHg 92%
21:00 +16°C° 0.1 mm 1 mps 569 mmHg 93%
22:00 +16°C° 0.1 mm 1 mps 569 mmHg 95%
23:00 +16°C° 0.1 mm 1 mps 569 mmHg 94%

26 January, Tuesday

Time Temperature Precipitation Wind Pressure Humidity
00:00 +14°C° 0.1 mm 0 mps 568 mmHg 94%
01:00 +14°C° 0.1 mm 0 mps 568 mmHg 94%
02:00 +14°C° 0 mm 0 mps 568 mmHg 94%
03:00 +14°C° 0 mm 0 mps 568 mmHg 94%
04:00 +14°C° 0 mm 0 mps 568 mmHg 94%
05:00 +14°C° 0 mm 0 mps 568 mmHg 92%
06:00 +15°C° 0 mm 1 mps 569 mmHg 90%
07:00 +16°C° 0 mm 1 mps 569 mmHg 88%
08:00 +18°C° 0.2 mm 1 mps 570 mmHg 84%
09:00 +18°C° 0.2 mm 2 mps 571 mmHg 80%
10:00 +19°C° 0.2 mm 3 mps 571 mmHg 76%
11:00 +19°C° 0.5 mm 3 mps 571 mmHg 76%
12:00 +19°C° 0.5 mm 3 mps 570 mmHg 76%
13:00 +19°C° 0.5 mm 3 mps 570 mmHg 76%
14:00 +20°C° 0.2 mm 3 mps 569 mmHg 74%
15:00 +20°C° 0.2 mm 2 mps 569 mmHg 73%
16:00 +20°C° 0.2 mm 2 mps 569 mmHg 72%
17:00 +19°C° 0.1 mm 2 mps 568 mmHg 78%
18:00 +19°C° 0.1 mm 1 mps 568 mmHg 84%
19:00 +18°C° 0.1 mm 1 mps 568 mmHg 91%
20:00 +16°C° 0.2 mm 1 mps 568 mmHg 92%
21:00 +15°C° 0.2 mm 0 mps 569 mmHg 93%
22:00 +15°C° 0.2 mm 0 mps 569 mmHg 94%
23:00 +15°C° 0.3 mm 0 mps 569 mmHg 94%

27 January, Wednesday

Time Temperature Precipitation Wind Pressure Humidity
00:00 +16°C° 0.3 mm 1 mps 569 mmHg 94%
01:00 +16°C° 0.3 mm 1 mps 569 mmHg 95%
02:00 +16°C° 0.2 mm 1 mps 569 mmHg 95%
03:00 +15°C° 0.2 mm 1 mps 568 mmHg 95%
04:00 +15°C° 0.2 mm 1 mps 568 mmHg 95%
05:00 +15°C° 0.5 mm 1 mps 568 mmHg 94%
06:00 +15°C° 0.5 mm 1 mps 569 mmHg 92%
07:00 +15°C° 0.5 mm 1 mps 569 mmHg 91%
08:00 +16°C° 0.3 mm 1 mps 570 mmHg 88%
09:00 +17°C° 0.3 mm 2 mps 570 mmHg 85%
10:00 +18°C° 0.3 mm 2 mps 571 mmHg 83%
11:00 +18°C° 0.6 mm 2 mps 571 mmHg 82%
12:00 +18°C° 0.6 mm 2 mps 570 mmHg 81%
13:00 +19°C° 0.6 mm 2 mps 570 mmHg 80%
14:00 +19°C° 0.4 mm 2 mps 570 mmHg 79%
15:00 +19°C° 0.4 mm 2 mps 569 mmHg 78%
16:00 +19°C° 0.4 mm 2 mps 569 mmHg 77%
17:00 +18°C° 0.4 mm 2 mps 569 mmHg 82%
18:00 +19°C° 0.4 mm 1 mps 569 mmHg 87%
19:00 +18°C° 0.4 mm 1 mps 568 mmHg 92%
20:00 +16°C° 0.4 mm 1 mps 569 mmHg 93%
21:00 +16°C° 0.4 mm 1 mps 569 mmHg 93%
22:00 +16°C° 0.4 mm 1 mps 570 mmHg 93%
23:00 +16°C° 0.6 mm 1 mps 570 mmHg 92%
Show more